Location: Walnut Street Observatory
(41.0583°N, 76.2295°W)
Time: 22:35:07
(UTC-04:00)

Daily predictions for brighter satellites

Satellite Brightness Start Highest point End
(mag) Time Altitude Azimuth Time Altitude Azimuth Time Altitude Azimuth
Cosmos 2297 Rocket 3.8 20:10:44 10° N 20:14:45 19° NE 20:18:46 10° E
Okean 2 4.3 20:12:25 10° NNE 20:16:12 31° ENE 20:19:55 10° SE
EO 1 Delta rocket 4.4 20:14:42 10° NNE 20:19:02 38° E 20:23:46 10° SSE
NOSS 2-1 (E) 3.6 20:18:00 10° SSW 20:21:42 45° ESE 20:25:52 10° NE
USA 186 2.4 20:19:51 10° SE 20:22:47 35° ENE 20:25:35 10° N
OTV 4 0.9 20:22:15 10° WSW 20:25:06 44° S 20:27:57 10° ESE
Cosmos 1461 4.4 20:23:25 10° N 20:26:33 21° NE 20:29:37 10° E
Cosmos 2219 3.6 20:29:47 10° NNW 20:35:21 66° WSW 20:40:54 10° S
Cosmos 1777 Rocket 4.0 20:30:45 10° NNW 20:36:00 67° ENE 20:41:14 10° SSE
Delta 2 Rocket 4.4 20:31:20 10° WSW 20:36:41 48° S 20:41:05 13° ESE
Cosmos 1544 Rocket 3.5 20:34:11 10° S 20:38:29 64° E 20:42:52 10° NNE
Lacrosse 5 rocket 3.0 20:36:04 10° NNW 20:38:48 19° NNE 20:41:30 10° ENE
OE (NEXTSAT) 4.4 20:35:21 10° WNW 20:38:56 83° SSW 20:41:53 14° ESE
Cosmos 1315 Rocket 3.5 20:35:57 10° SSW 20:39:52 58° W 20:43:52 10° N
Cosmos 2208 Rocket 4.2 20:37:42 10° S 20:42:47 48° ESE 20:47:56 10° NNE
Meteor 2-4 Rocket 4.0 20:39:12 10° NNW 20:45:02 82° W 20:50:57 10° S
CZ-3C R/B 4.3 19:50:07 10° WSW 20:47:59 35° SSW 20:56:55 11° SE
Cosmos 1821 Rocket 4.0 20:42:09 10° S 20:48:17 89° WNW 20:54:24 10° N
ATLAS CENTAUR R/B 3.6 20:44:40 10° WSW 20:49:18 35° NW 20:53:50 10° NNE
Cosmos 1605 Rocket 4.1 20:44:54 10° SSE 20:51:05 56° E 20:57:13 10° NNE
Cosmos 2278 3.8 20:47:43 10° S 20:53:10 51° ESE 20:58:41 10° NNE
ALOS 2.9 20:50:18 10° S 20:54:54 59° W 20:59:32 10° NNW
Cosmos 1939 Rocket 3.6 20:53:26 17° SE 20:56:06 35° ENE 20:59:54 10° N
Cosmos 1697 Rocket 3.9 20:54:02 15° SE 20:56:23 19° E 21:00:17 10° NE
Lacrosse 5 3.7 20:56:10 10° NNW 20:59:58 21° NNE 21:03:46 10° ENE
NOSS 3-4 (A) 3.8 20:53:00 10° NNW 21:00:02 76° NE 21:06:11 16° SE
NOSS 3-4 (C) 3.8 20:53:07 10° NNW 21:00:09 75° NE 21:06:16 16° SE
H-2A R/B 3.5 20:57:19 10° S 21:01:04 54° W 21:04:55 10° NNW
Cosmos 1570 Rocket 4.0 20:57:20 10° SSW 21:02:39 80° ESE 21:07:57 10° NNE
NOSS 7 (D) 4.4 21:00:21 10° SSW 21:03:47 56° ESE 21:07:05 10° NE
Cosmos 2369 3.7 21:00:07 10° S 21:05:39 58° ESE 21:11:14 10° NNE
SPOT 5 3.9 21:03:41 20° ESE 21:06:13 30° ENE 21:10:29 10° N
YAOGAN 11 4.1 21:02:35 13° SSE 21:06:35 70° ENE 21:11:04 10° N
Envisat 3.2 21:08:01 19° SE 21:11:29 52° ENE 21:16:25 10° N
DELTA 2 R/B (1) 3.5 21:09:22 10° W 21:14:56 78° S 21:18:27 23° E
Cosmos 1980 Rocket 3.8 21:19:03 16° E 21:19:03 16° E 21:21:11 10° ENE
Cosmos 2123 Rocket 4.1 21:13:03 10° N 21:19:13 75° W 21:25:22 10° S
Hubble Space Telescope 2.9 21:19:24 10° SW 21:21:13 13° S 21:21:37 12° S
RESURS DK-1 4.2 21:20:55 10° N 21:23:45 17° NE 21:24:26 17° ENE
Cosmos 1346 Rocket 3.6 21:20:21 10° NNW 21:24:10 50° W 21:27:53 11° S
ARGOS 4.2 21:26:41 24° E 21:28:08 27° ENE 21:32:36 10° N
CZ-4 DEB 3.6 21:30:12 23° SSW 21:31:52 46° W 21:34:55 10° NNW
H-2A R/B 1.9 21:32:15 41° SE 21:33:28 61° ENE 21:37:32 10° N
deb Chang Zheng 4 3.6 21:29:11 10° NNE 21:33:36 60° ESE 21:35:52 27° S
Iridium 4 Rocket 3.5 21:33:22 10° N 21:38:38 78° W 21:42:11 18° S
Cosmos 1626 Rocket 3.7 21:34:21 10° NNW 21:38:46 74° W 21:41:12 26° S
ASTEX 1 3.9 21:34:51 10° NNE 21:39:34 40° E 21:40:10 38° ESE
Cosmos 1459 Rocket 4.0 21:36:29 26° SSE 21:39:41 53° E 21:45:35 10° NNE
Cosmos 2227 Rocket 2.4 21:37:39 10° NNW 21:43:17 67° WSW 21:46:31 26° S
SL-24 R/B - RUBIN 2 4.3 21:37:57 10° SSW 21:43:37 60° ESE 21:49:57 10° NE
Tiangong 1 1.3 21:42:09 10° W 21:45:06 62° NNW 21:45:06 62° NNW
NOSS 7 (H) 4.5 21:42:15 10° SW 21:45:29 72° NW 21:48:55 10° NNE
Cosmos 1602 Rocket 4.0 21:41:50 10° NNW 21:46:15 61° W 21:48:43 25° SSW
Cosmos 1898 Rocket 3.5 21:43:40 10° NNW 21:48:58 64° ENE 21:50:22 46° SE
Cosmos 1500 3.1 21:50:01 55° SSW 21:50:47 83° W 21:54:34 10° N
Nimbus 7 Rocket 4.4 21:44:57 10° NNE 21:51:02 82° ESE 21:57:02 10° SSW
ERS-1 Rocket 3.7 21:47:20 17° S 21:51:04 49° W 21:55:57 10° NNW
MetOp-B 4.1 21:49:40 42° SE 21:51:25 69° ENE 21:56:45 10° N
Cosmos 2082 4.1 21:49:34 10° NNW 21:55:04 57° WSW 21:57:54 28° S
Terra 3.5 21:56:54 19° ENE 21:56:54 19° ENE 21:59:49 10° NNE
Cosmos 1802 Rocket 4.0 21:54:07 34° SSE 21:56:57 64° E 22:03:19 10° NNE
OAO 2 Rocket 4.1 21:54:25 10° SW 21:58:17 34° S 21:58:17 34° S
Cosmos 2297 Rocket 2.4 21:53:43 10° NNW 21:59:21 69° WSW 22:01:34 37° S
OTV 4 2.8 21:58:27 10° W 21:59:29 18° WSW 21:59:29 18° WSW
Cosmos 1656 3.6 21:55:47 10° SSW 22:01:25 87° WNW 22:07:02 10° NNE
SL-08 RB Rocket 4.3 22:02:59 42° ENE 22:02:59 42° ENE 22:07:12 10° N
Cosmos 1975 4.3 21:59:33 10° SW 22:03:22 37° WNW 22:07:12 10° N
Cosmos 1461 3.7 22:02:06 10° NW 22:05:54 39° WSW 22:06:17 37° SW
Cosmos 1340 3.6 22:05:26 10° N 22:08:04 39° NNE 22:08:04 39° NNE
Cosmos 468 Rocket 3.9 22:09:55 33° SSW 22:12:14 85° WNW 22:17:24 10° NNE
Cosmos 1814 Rocket 3.9 22:16:31 48° SSW 22:18:06 90° WNW 22:23:27 10° NNE
Lacrosse 5 rocket 2.1 22:14:43 10° NW 22:17:23 42° WNW 22:17:23 42° WNW
Cosmos 1743 3.3 22:19:33 55° NNW 22:19:33 55° NNW 22:22:45 10° N
Cosmos 2016 Rocket 3.8 22:19:13 52° S 22:20:48 81° E 22:27:00 10° N
Cosmos 1606 Rocket 3.9 22:21:42 59° NNE 22:21:42 59° NNE 22:25:19 10° N
Cosmos 841 Rocket 4.5 22:24:02 34° NE 22:24:02 34° NE 22:27:13 10° NNE
Cosmos 2084 3.9 22:21:09 10° NW 22:24:26 57° NNW 22:24:26 57° NNW
USA 215 3.3 22:26:30 52° ESE 22:28:07 71° NE 22:34:39 10° NW
YAOGAN 6 4.2 22:34:49 32° WNW 22:34:49 32° WNW 22:37:31 10° NNW
Cosmos 2173 Rocket 4.5 22:30:10 23° SSW 22:34:07 59° W 22:40:25 10° N
Milstar 3 Cent rocket 4.1 22:20:53 10° WSW 22:36:18 42° SSW 22:38:08 39° S
Cosmos 1697 Rocket 3.2 22:35:31 17° SW 22:39:49 58° WNW 22:45:25 10° NNE
GEOS 3 Rocket 3.6 22:35:07 10° NNE 22:40:14 75° NW 22:41:24 53° WSW
H-2A R/B 2.4 22:41:13 52° NNE 22:41:13 52° NNE 22:45:13 10° N
Meteor 1-15 Rocket 4.4 22:41:03 62° ENE 22:41:03 62° ENE 22:46:17 10° NNE
SL-16 R/B 4.2 22:44:19 16° NE 22:44:19 16° NE 22:45:39 10° NE
Lacrosse 5 2.1 22:38:37 10° NW 22:43:01 64° NNW 22:43:01 64° NNW
SPOT 5 4.3 22:42:56 29° SW 22:44:11 32° W 22:48:38 10° NW
Cosmos 2098 Rocket 4.1 22:42:50 59° S 22:44:21 89° WNW 22:50:41 10° N
Tsikada Rocket 3.9 22:37:59 10° N 22:44:26 78° E 22:44:43 76° ESE
NOAA 11 4.3 22:44:17 63° WSW 22:44:36 65° WSW 22:50:04 10° NNW
Cosmos 1864 Rocket 4.3 22:47:51 86° SE 22:47:56 87° E 22:54:06 10° N
Cosmos 967 Rocket 4.4 22:48:57 10° NNW 22:55:14 82° NE 22:55:14 82° NE
Cosmos 1937 Rocket 4.4 22:53:39 10° NNW 22:58:26 42° W 22:58:26 42° W
SPOT 1/Viking Rocket 4.4 22:58:58 42° W 22:59:02 42° W 23:04:00 10° NNW
Cosmos 1980 Rocket 2.5 23:00:43 64° WNW 23:00:57 64° WNW 23:06:38 10° NNE
RESURS DK-1 4.2 22:58:05 10° NW 23:00:21 28° WNW 23:00:21 28° WNW
ARGOS 4.1 23:08:12 39° W 23:08:12 39° W 23:13:13 10° NNW
Cosmos 1725 Rocket 4.4 23:17:04 53° W 23:17:32 54° W 23:23:40 10° N
Cosmos 2322 Rocket 3.5 23:33:40 33° NNE 23:33:40 33° NNE 23:36:38 10° NNE
Cosmos 2263 Rocket 3.3 23:27:24 10° NNW 23:31:08 37° NNE 23:31:08 37° NNE
Terra 3.5 23:35:48 30° NW 23:35:48 30° NW 23:38:29 10° NNW
